Location: Raleigh
(35.7720°N, 78.6390°W)
Time: 00:18:29
(UTC-04:00)

FO-29 - Visible Passes

Search period start: 27 May 2017 00:00
Search period end: 06 June 2017 00:00
Orbit: 800 x 1322 km, 98.6° (Epoch: 26 May)

Date Brightness Start Highest point End Pass type
(mag) Time Alt. Az. Time Alt. Az. Time Alt. Az.
27 May 11.1 00:30:27 10° N 00:36:02 31° WNW 00:38:40 24° WSW visible
27 May 11.3 21:51:52 10° NE 21:55:58 16° E 21:56:35 16° E visible
27 May 9.8 23:34:40 10° N 23:41:18 78° WNW 23:43:05 54° SSW visible
28 May 12.1 01:23:01 10° NW 01:25:31 12° WNW 01:28:06 10° W visible
28 May 10.3 22:39:55 10° NNE 22:46:18 42° E 22:47:29 39° ESE visible
29 May 11.1 00:25:18 10° N 00:31:08 33° WNW 00:33:59 25° WSW visible
29 May 11.4 21:47:06 10° ENE 21:51:00 15° E 21:51:54 15° E visible
29 May 9.8 23:29:36 10° N 23:36:23 83° WNW 23:38:23 53° SSW visible
30 May 12.1 01:17:29 10° NNW 01:20:38 14° WNW 01:23:55 10° W visible
30 May 10.4 22:34:58 10° NNE 22:41:22 40° E 22:42:48 36° ESE visible
31 May 11.0 00:20:10 10° N 00:26:14 36° WNW 00:29:17 26° WSW visible
31 May 11.4 21:42:24 10° ENE 21:46:02 14° E 21:47:12 14° ESE visible
31 May 9.8 23:24:34 10° NNE 23:31:29 88° WNW 23:33:42 50° SSW visible
01 Jun 12.0 01:12:04 10° NNW 01:15:44 15° WNW 01:19:37 10° W visible
01 Jun 10.5 22:30:02 10° NNE 22:36:28 37° E 22:38:06 34° SE visible
02 Jun 10.9 00:15:04 10° N 00:21:21 39° WNW 00:24:35 27° WSW visible
02 Jun 11.5 21:37:45 10° ENE 21:41:05 13° E 21:42:30 13° ESE visible
02 Jun 9.8 23:19:33 10° NNE 23:26:35 87° ESE 23:29:00 48° S visible
03 Jun 12.0 01:06:45 10° NNW 01:10:53 17° WNW 01:15:14 10° W visible
03 Jun 10.6 22:25:07 10° NNE 22:31:32 35° E 22:33:24 31° SE visible
04 Jun 10.8 00:09:58 10° N 00:16:28 42° WNW 00:19:53 27° WSW visible
04 Jun 11.6 21:33:11 10° ENE 21:36:07 13° E 21:37:47 12° ESE visible
04 Jun 9.9 23:14:33 10° NNE 23:21:42 82° ESE 23:24:17 46° S visible
05 Jun 11.9 01:01:29 10° NNW 01:06:01 18° WNW 01:10:47 10° WSW visible
05 Jun 10.7 22:20:12 10° NE 22:26:37 33° E 22:28:41 29° SE visible
